Вернуться в каталог

IUS R/B(2)

АктивенMEO
NORAD 20357·ROCKET BODY·🇺🇸 United States

Запущен Nov 23, 1989 с Cape Canaveral Space Force Station

Loading…

Ближайшие Пролёты (ближайшие 24 часа)

TLE

СвежийSource: Space-Track

Эпоха: Sep 11, 2026, 18:11 UTC

1 20357U 89090D   26254.75769477 -.00000161  00000-0  00000-0 0  9993
2 20357  17.2036 341.8656 0334325 104.6032 259.1351  0.99515800 26222

Отслеживайте IUS R/B(2) в реальном времени с AllMySat

Download on the App Store